Regional Weather Roundup
Issued by NWS Albany, NY

Home | Current Version | Previous Version | Graphics & Text | Print | Product List | Glossary Off
Versions: 1 2 3 4 5 6 7 8 9 10 11 12 13 14 15 16 17 18 19 20 21 22 23 24 25 26 27 28 29 30 31 32 33 34 35 36 37 38 39 40 41 42 43 44 45 46 47 48 49 50

000
ASUS41 KALY 280910
RWRALY

NEW YORK STATE HOURLY WEATHER ROUNDUP
NATIONAL WEATHER SERVICE ALBANY NY
400 AM EST FRI NOV 28 2014

NOTE: "FAIR" INDICATES FEW OR NO CLOUDS BELOW 12,000 FEET WITH NO
SIGNIFICANT WEATHER AND/OR NO OBSTRUCTIONS TO VISIBILITY.

NYZ032-033-038>043-046>054-057>066-NYZ062>081-281000-
EAST


CITY           SKY/WX    TMP DP  RH WIND       PRES   REMARKS
ALBANY         FLURRIES  28  25  88 CALM      30.06S
GLENS FALLS    LGT SNOW  26  23  88 CALM      30.05R FOG
POUGHKEEPSIE   FOG       21  17  84 CALM      30.07S VSB 1/4
MONTGOMERY     PTCLDY    20  18  92 CALM      30.06S
WHITE PLAINS   CLEAR     29  21  72 NW9       30.04S WCI  20
ISLIP          MOCLDY    32  26  78 NW8       30.04S WCI  25
NEW YORK CITY  CLEAR     32  23  69 NW14      30.08S WCI  22
CENTRAL PARK   CLEAR     31  21  66 W9        30.10S WCI  23
$$

NYZ005>009-017-018-044>046-055-056-281000-
CENTRAL


CITY           SKY/WX    TMP DP  RH WIND       PRES   REMARKS
FULTON         MOCLDY    26  18  71 NW7       30.12R WCI  18
SYRACUSE       MOCLDY    24  20  84 W8        30.12R WCI  15
ROME           CLOUDY    27  24  89 W7        30.11R WCI  19
ELMIRA         CLOUDY    29  23  78 NW3       30.12R
BINGHAMTON     CLOUDY    24  21  88 NW9       30.03R WCI  14
MONTICELLO     PTCLDY    21  19  93 W8        30.02S WCI  12
$$

NYZ026>034-041>043-281000-
NORTH


CITY           SKY/WX    TMP DP  RH WIND       PRES   REMARKS
WATERTOWN      CLEAR     17  11  77 CALM      30.12R
FORT DRUM      NOT AVBL
MASSENA        CLOUDY    25  17  72 W7        30.08S WCI  17
SARANAC LAKE   CLOUDY    20  14  77 W5        29.96R WCI  13
PLATTSBURGH    LGT SNOW  25  24  96 CALM      30.05R FOG
$$

NYZ001>004-010>016-019>021-281000-
WEST


CITY           SKY/WX    TMP DP  RH WIND       PRES   REMARKS
NIAGARA FALLS  CLOUDY    22  14  71 W9        30.19  WCI  12
BUFFALO        CLOUDY    23  14  68 W9        30.19S WCI  13
DUNKIRK        CLOUDY    27  16  63 NW12G25   30.22S WCI  17
JAMESTOWN      CLOUDY    21  16  79 W12       30.14S WCI   9
WELLSVILLE     MOCLDY    20  13  74 NW10G24   30.11R WCI   9
ROCHESTER      LGT SNOW  27  22  81 NW14G25   30.16R WCI  16
PENN YAN       LGT SNOW  27  21  78 W8        30.12R WCI  19
$$

             KEY
       WCI = WIND CHILL INDEX
       VSB = VISIBILITY
       HX  = HEAT INDEX
$$


USA.gov is the U.S. government's official web portal to all federal, state and local government web resources and services.